OBJECT AG, 59128

Orbit data source: Space-Track

You're viewing an Uncataloged Satellite

Recently launched and/or uncataloged satellites may have evolving metadata. Metadata may include but not limited to: Owner, Maufacturer, Bus, Motor, and Mission.

OBJECT AG, 59128 is a satellite in SSO that was launched on Mon, 04 Mar 2024 UTC via an FALCON 9 launch vehicle from the Air Force Western Test Range (AFWTR). Unknown objects in Earth's orbit typically refer to objects detected orbiting the Earth but have not yet been identified or cataloged. These objects could be anything from previously untracked satellites, spent rocket stages, debris from satellite collisions, or even natural meteoroids temporarily captured by Earth's gravity.

Loading next visibility...
Identifier
59128, 2024-043AG
Orbit
SSO
Country
Flag of TBDTBD
Related business
None
Manufacturer
Unknown
Mission
Operational Commercial Technology
Bus & Motor
Unknown
Mass
Unknown
Launch date (UTC)
2024-03-04 (2 years ago)
Launch vehicle
FALCON 9
Launch site
Air Force Western Test Range (AFWTR)
Object type
Unknown
Shape & HBR
Cyl + 1 Pan, 0.8 m
Radar Cross Section
2.062 m², Large (>1 m²)

Expand to show TLE details & history
Last TLE update: 1 day ago

TLE from 1 day ago
0 OBJECT AG
1 59128U 24043AG  26191.35686328  .00004641  00000-0  15074-3 0  9993
2 59128  97.5664 330.5508 0010535 151.6268 208.5549 15.32401443130667
Epoch: 2026-07-10T08:33Z
TLE epoch observation values (Epoch: 2026-07-10T08:33:52.987Z)
Latitude
-0.00003°
Longitude
-86.20558°
Altitude
478.091 km
Speed
7.623 km/s
True Right ascension
22h 02m 12s
True Declination
0° 00' 00"
Sunlit
Object was in full shadow at epoch
Visualization orbit readout
Latitude
Unknown
Longitude
Unknown
Altitude
Unknown
Speed
Unknown
Apparent Right ascension
Unknown
Apparent Declination
Unknown
Sunlit
N/A
Visualization observer readout
Local Sidereal Time
02:31:06
Azimuth
Unknown
Elevation
Unknown
Doppler factor
Unknown
Orbital elements
Apogee altitude
472.816 km
Perigee altitude
458.396 km
Semi-major axis
6,843.743 km
Eccentricity
0.00105
Inclination
97.5664°
RAAN
330.5508°
Arg. of periapsis
151.6268°
True anomaly
208.49726°
Mean anomaly
208.5549°
Eccentric anomaly
208.52607°
Mean motion
3.83356 °/min
Orbital period
93.91 mins
BSTAR
0.00015074
Loading maneuver chart data...
Computing Atmospheric mass density...
Loading historical data...
Loading historical data...
Loading historical data...
Loading historical data...
Loading historical data...
Loading historical data...
Loading historical data...

Documentation

Showing up to 5 results
|